Content
SEND FEEDBACK

Daily
Averages
Monthly
Summary
United States of America

DEWEYVILLE, TEXAS


Home > North America > United States > Texas
Elevation: 30 feet     Latitude: 30 18N     Longitude: 093 45W

WEATHER
 
SELECT A DAY
Number of Records: 108,109;   Date Range: 8/25/05 - 7/27/14
 
SHARE

PRINT THIS DATA

[ ← Previous Day ]
WEATHER ALMANAC - APRIL 21, 2013
[ Next Day → ]
[ °C ]   °F
Weather ElementAverageHighLow
Temperature61.6 °F72.7 °F (4:15 pm)46.6 °F (4:15 am)
Dewpoint49.8 °F55 °F (8:35 pm)45.9 °F (4:15 am)
Humidity69 %97 % (4:15 am)44 % (3:55 pm)
Barometer30.16 in30.21 in (8:15 am)30.10 in (5:15 pm)
Wind Speed2.1 mph13.8 mph (10:55 am)
Wind Gust18.4 mph (10:15 am)
Weather ElementAverage
Visibility9.8 mi
Wind DirectionNNE (20 °)

Weather ElementTotal
Precipitation---
Heating Degree Days5.3 (Base 65)
Growing Degree Days9.7 (Base 50)
Averaged from 64 records on April 21, 2013
WEATHER CONDITIONS BREAKOUT
WIND DIRECTION BREAKOUT
WEATHER BY HOUR - APRIL 21, 2013
[ °C ]   °F
Local TimeTemperatureDewpointHumidityBarometerVisibilityWind DirectionWind SpeedGust SpeedPrecipitationEventsConditions
12:35 AM49.1 °F47.5 °F94 %30.19 in10.0 miCalmClear
12:55 AM49.5 °F47.8 °F94 %30.19 in10.0 miCalmClear
1:15 AM49.1 °F48.0 °F96 %30.19 in10.0 miCalmClear
1:35 AM48.2 °F46.8 °F95 %30.18 in10.0 miCalmClear
4:15 AM46.6 °F45.9 °F97 %30.14 in4.0 miCalmClear
4:35 AM46.6 °F45.9 °F97 %30.13 in10.0 miCalmClear
4:55 AM47.3 °F46.4 °F97 %30.12 in10.0 miCalmClear
5:15 AM50.2 °F48.6 °F94 %30.11 in10.0 miEast (100°)6.9 mphClear
5:35 AM55.8 °F49.6 °F80 %30.13 in10.0 miCalmClear
5:55 AM50.9 °F48.4 °F91 %30.16 in10.0 miCalmClear
6:15 AM49.6 °F47.7 °F93 %30.17 in10.0 miCalmClear
6:35 AM48.4 °F46.8 °F94 %30.18 in10.0 miCalmClear
6:55 AM48.4 °F46.4 °F93 %30.18 in10.0 miCalmScattered Clouds
7:15 AM49.3 °F46.8 °F91 %30.18 in10.0 miCalmScattered Clouds
7:35 AM50.5 °F47.8 °F90 %30.19 in10.0 miCalmClear
7:55 AM51.6 °F48.4 °F89 %30.20 in10.0 miCalmClear
8:15 AM52.9 °F49.1 °F87 %30.21 in10.0 miNE (40°)4.6 mphClear
8:35 AM55.4 °F50.0 °F82 %30.21 in10.0 miCalmClear
8:55 AM57.9 °F50.4 °F76 %30.21 in10.0 miCalmClear
9:15 AM60.1 °F50.2 °F70 %30.21 in10.0 miNE (40°)10.4 mphScattered Clouds
9:35 AM62.2 °F49.8 °F64 %30.21 in10.0 miCalmClear
9:55 AM63.7 °F47.8 °F56 %30.21 in10.0 miENE (60°)11.5 mph16.1 mphClear
10:15 AM64.4 °F48.2 °F56 %30.21 in10.0 miENE (60°)3.5 mph18.4 mphClear
10:35 AM66.2 °F48.0 °F52 %30.21 in10.0 miENE (70°)11.5 mphClear
10:55 AM67.1 °F48.0 °F50 %30.21 in10.0 miNE (50°)13.8 mphClear
11:15 AM68.0 °F48.7 °F50 %30.21 in10.0 miEast (80°)8.1 mphScattered Clouds
11:35 AM68.0 °F48.2 °F49 %30.21 in10.0 miCalmScattered Clouds
11:55 AM68.9 °F49.3 °F50 %30.21 in10.0 miEast (80°)10.4 mph16.1 mphClear
12:15 PM69.4 °F49.8 °F50 %30.20 in10.0 miEast (80°)8.1 mphScattered Clouds
12:35 PM68.7 °F49.5 °F50 %30.19 in10.0 miEast (90°)8.1 mphScattered Clouds
12:55 PM69.3 °F48.9 °F48 %30.18 in10.0 miCalmScattered Clouds
1:15 PM70.3 °F49.8 °F48 %30.18 in10.0 miENE (60°)5.8 mphScattered Clouds
1:35 PM70.2 °F48.9 °F47 %30.18 in10.0 miCalmScattered Clouds
1:55 PM70.9 °F49.6 °F47 %30.17 in10.0 miCalmScattered Clouds
2:15 PM71.4 °F50.0 °F47 %30.16 in10.0 miCalmScattered Clouds
2:35 PM70.7 °F49.6 °F47 %30.16 in10.0 miCalmScattered Clouds
2:55 PM72.1 °F50.4 °F46 %30.15 in10.0 miEast (100°)4.6 mphScattered Clouds
3:15 PM70.3 °F48.7 °F46 %30.14 in10.0 miCalmScattered Clouds
3:35 PM70.5 °F48.4 °F45 %30.13 in10.0 miCalmScattered Clouds
3:55 PM72.5 °F49.5 °F44 %30.12 in10.0 miEast (80°)5.8 mphClear
4:15 PM72.7 °F49.3 °F44 %30.11 in10.0 miCalmClear
4:35 PM72.0 °F48.9 °F44 %30.11 in10.0 miEast (80°)6.9 mphClear
4:55 PM72.5 °F49.5 °F44 %30.11 in10.0 miEast (80°)3.5 mphClear
5:15 PM72.1 °F49.1 °F44 %30.10 in10.0 miCalmClear
5:35 PM72.1 °F49.6 °F45 %30.11 in10.0 miCalmClear
5:55 PM71.8 °F49.3 °F45 %30.10 in10.0 miNE (50°)3.5 mphClear
6:15 PM71.4 °F49.6 °F46 %30.11 in10.0 miEast (80°)6.9 mphClear
6:35 PM70.9 °F50.0 °F48 %30.10 in10.0 miCalmClear
6:55 PM70.0 °F50.2 °F49 %30.10 in10.0 miCalmClear
7:15 PM68.9 °F50.4 °F52 %30.10 in10.0 miCalmClear
7:35 PM67.5 °F50.7 °F55 %30.11 in10.0 miCalmClear
7:55 PM66.6 °F51.3 °F58 %30.11 in10.0 miCalmClear
8:15 PM65.3 °F52.3 °F63 %30.12 in10.0 miCalmClear
8:35 PM64.0 °F55.0 °F73 %30.12 in10.0 miCalmClear
8:55 PM61.3 °F54.9 °F79 %30.13 in10.0 miCalmClear
9:15 PM59.5 °F55.0 °F85 %30.13 in10.0 miCalmClear
9:35 PM58.3 °F54.9 °F88 %30.14 in10.0 miCalmClear
9:55 PM57.6 °F54.9 °F91 %30.14 in10.0 miCalmClear
10:15 PM56.8 °F54.7 °F92 %30.15 in10.0 miCalmClear
10:35 PM55.9 °F54.1 °F94 %30.14 in10.0 miCalmClear
10:55 PM55.6 °F54.3 °F96 %30.14 in10.0 miCalmClear
11:15 PM55.6 °F54.5 °F96 %30.14 in10.0 miCalmClear
11:35 PM55.4 °F54.3 °F96 %30.14 in7.0 miCalmClear
11:55 PM54.5 °F53.6 °F97 %30.14 in5.0 miCalmClear
Hourly data recorded from KORG, located miles away from Deweyville, Texas







STORIES FROM OUR PARTNERS